• în Republica Moldova
  • Lista ţărilor
  • Pe 7 zile
  • Temperatura apei
  • Hartă satelitară
  • Meteo pe hartă
  • Widget-uri
  • user-avatar
    Intrare

    Meteo pe oră la Mitroshino

    Astăzi, 19 August, Duminică

    Timp Temperatura Precipitaţii Vânt Presiune Umiditate
    00:00 +17°C° 0 mm 2 m/s 745 mmHg 96%
    01:00 +16°C° 0 mm 2 m/s 745 mmHg 96%
    02:00 +16°C° 0 mm 1 m/s 745 mmHg 97%
    03:00 +16°C° 0,1 mm 1 m/s 745 mmHg 97%
    04:00 +16°C° 0,1 mm 1 m/s 745 mmHg 97%
    05:00 +16°C° 0,1 mm 1 m/s 744 mmHg 97%
    06:00 +17°C° 0 mm 2 m/s 745 mmHg 94%
    07:00 +18°C° 0 mm 2 m/s 745 mmHg 91%
    08:00 +19°C° 0 mm 2 m/s 745 mmHg 88%
    09:00 +21°C° 0,1 mm 3 m/s 745 mmHg 81%
    10:00 +22°C° 0,1 mm 3 m/s 745 mmHg 74%
    11:00 +23°C° 0,1 mm 4 m/s 744 mmHg 66%
    12:00 +25°C° 0,1 mm 4 m/s 744 mmHg 60%
    13:00 +25°C° 0,1 mm 4 m/s 744 mmHg 54%
    14:00 +25°C° 0,1 mm 4 m/s 744 mmHg 49%
    15:00 +25°C° 0 mm 4 m/s 744 mmHg 52%
    16:00 +24°C° 0 mm 3 m/s 744 mmHg 56%
    17:00 +22°C° 0 mm 3 m/s 744 mmHg 59%
    18:00 +21°C° 0 mm 3 m/s 744 mmHg 67%
    19:00 +19°C° 0 mm 2 m/s 744 mmHg 75%
    20:00 +18°C° 0 mm 2 m/s 744 mmHg 83%
    21:00 +17°C° 0 mm 2 m/s 744 mmHg 87%
    22:00 +17°C° 0 mm 2 m/s 744 mmHg 91%
    23:00 +16°C° 0 mm 2 m/s 744 mmHg 96%

    Mâine, 20 August, Luni

    Timp Temperatura Precipitaţii Vânt Presiune Umiditate
    00:00 +16°C° 0 mm 2 m/s 744 mmHg 96%
    01:00 +16°C° 0 mm 2 m/s 744 mmHg 97%
    02:00 +15°C° 0 mm 2 m/s 744 mmHg 98%
    03:00 +15°C° 0 mm 2 m/s 744 mmHg 98%
    04:00 +15°C° 0 mm 2 m/s 743 mmHg 98%
    05:00 +15°C° 0 mm 2 m/s 743 mmHg 98%
    06:00 +16°C° 0 mm 2 m/s 743 mmHg 93%
    07:00 +18°C° 0 mm 3 m/s 743 mmHg 89%
    08:00 +19°C° 0 mm 3 m/s 743 mmHg 85%
    09:00 +20°C° 0 mm 4 m/s 743 mmHg 79%
    10:00 +21°C° 0 mm 4 m/s 742 mmHg 73%
    11:00 +22°C° 0 mm 4 m/s 742 mmHg 67%
    12:00 +23°C° 0 mm 4 m/s 742 mmHg 65%
    13:00 +23°C° 0 mm 4 m/s 741 mmHg 63%
    14:00 +25°C° 0 mm 4 m/s 741 mmHg 60%
    15:00 +25°C° 0,1 mm 4 m/s 740 mmHg 64%
    16:00 +23°C° 0,1 mm 4 m/s 739 mmHg 67%
    17:00 +24°C° 0,1 mm 3 m/s 739 mmHg 71%
    18:00 +22°C° 0,5 mm 3 m/s 738 mmHg 77%
    19:00 +20°C° 0,5 mm 3 m/s 738 mmHg 84%
    20:00 +19°C° 0,5 mm 4 m/s 738 mmHg 90%
    21:00 +19°C° 0,2 mm 4 m/s 737 mmHg 91%
    22:00 +18°C° 0,2 mm 4 m/s 737 mmHg 91%
    23:00 +18°C° 0,2 mm 4 m/s 736 mmHg 92%

    Poimâine, 21 August, Marţi

    Timp Temperatura Precipitaţii Vânt Presiune Umiditate
    00:00 +18°C° 0,2 mm 4 m/s 736 mmHg 92%
    01:00 +18°C° 0,2 mm 4 m/s 735 mmHg 92%
    02:00 +18°C° 0,2 mm 4 m/s 735 mmHg 92%
    03:00 +17°C° 0,2 mm 4 m/s 735 mmHg 93%
    04:00 +17°C° 0,2 mm 4 m/s 735 mmHg 93%
    05:00 +15°C° 0,2 mm 4 m/s 735 mmHg 94%
    06:00 +15°C° 0,1 mm 5 m/s 736 mmHg 91%
    07:00 +15°C° 0,1 mm 5 m/s 736 mmHg 88%
    08:00 +15°C° 0,1 mm 5 m/s 737 mmHg 86%
    09:00 +16°C° 0 mm 5 m/s 737 mmHg 77%
    10:00 +16°C° 0 mm 6 m/s 738 mmHg 68%
    11:00 +17°C° 0 mm 6 m/s 738 mmHg 60%
    12:00 +19°C° 0 mm 6 m/s 739 mmHg 55%
    13:00 +20°C° 0 mm 6 m/s 739 mmHg 50%
    14:00 +20°C° 0 mm 6 m/s 740 mmHg 45%
    15:00 +20°C° 0 mm 5 m/s 740 mmHg 47%
    16:00 +20°C° 0 mm 5 m/s 740 mmHg 49%
    17:00 +19°C° 0 mm 5 m/s 741 mmHg 51%
    18:00 +17°C° 0 mm 4 m/s 741 mmHg 58%
    19:00 +14°C° 0 mm 3 m/s 742 mmHg 66%
    20:00 +13°C° 0 mm 3 m/s 742 mmHg 73%
    21:00 +12°C° 0 mm 3 m/s 743 mmHg 74%
    22:00 +11°C° 0 mm 3 m/s 743 mmHg 75%
    23:00 +11°C° 0 mm 3 m/s 744 mmHg 76%

    22 August, Miercuri

    Timp Temperatura Precipitaţii Vânt Presiune Umiditate
    00:00 +10°C° 0 mm 3 m/s 744 mmHg 77%
    01:00 +10°C° 0 mm 3 m/s 744 mmHg 78%
    02:00 +10°C° 0 mm 3 m/s 745 mmHg 79%
    03:00 +9°C° 0 mm 3 m/s 745 mmHg 80%
    04:00 +9°C° 0 mm 3 m/s 746 mmHg 81%
    05:00 +8°C° 0 mm 3 m/s 746 mmHg 83%
    06:00 +10°C° 0 mm 3 m/s 746 mmHg 76%
    07:00 +11°C° 0 mm 3 m/s 747 mmHg 70%
    08:00 +12°C° 0 mm 4 m/s 747 mmHg 63%
    09:00 +13°C° 0 mm 4 m/s 747 mmHg 58%
    10:00 +15°C° 0 mm 4 m/s 748 mmHg 52%
    11:00 +17°C° 0 mm 4 m/s 748 mmHg 46%
    12:00 +18°C° 0 mm 3 m/s 748 mmHg 45%
    13:00 +18°C° 0 mm 3 m/s 748 mmHg 43%
    14:00 +19°C° 0 mm 3 m/s 748 mmHg 42%
    15:00 +19°C° 0 mm 3 m/s 748 mmHg 44%
    16:00 +18°C° 0 mm 2 m/s 748 mmHg 46%
    17:00 +18°C° 0 mm 2 m/s 748 mmHg 48%
    18:00 +17°C° 0 mm 2 m/s 748 mmHg 56%
    19:00 +15°C° 0 mm 1 m/s 748 mmHg 64%
    20:00 +13°C° 0 mm 1 m/s 748 mmHg 72%
    21:00 +12°C° 0 mm 1 m/s 748 mmHg 74%
    22:00 +12°C° 0 mm 2 m/s 748 mmHg 76%
    23:00 +12°C° 0 mm 2 m/s 748 mmHg 78%

    23 August, Joi

    Timp Temperatura Precipitaţii Vânt Presiune Umiditate
    00:00 +12°C° 0 mm 2 m/s 748 mmHg 78%
    01:00 +12°C° 0 mm 2 m/s 748 mmHg 79%
    02:00 +10°C° 0 mm 3 m/s 748 mmHg 79%
    03:00 +11°C° 0 mm 3 m/s 748 mmHg 78%
    04:00 +11°C° 0 mm 3 m/s 747 mmHg 77%
    05:00 +11°C° 0 mm 3 m/s 747 mmHg 76%
    06:00 +12°C° 0 mm 4 m/s 747 mmHg 72%
    07:00 +14°C° 0 mm 4 m/s 747 mmHg 67%
    08:00 +15°C° 0 mm 5 m/s 747 mmHg 62%
    09:00 +17°C° 0 mm 5 m/s 747 mmHg 58%
    10:00 +19°C° 0 mm 5 m/s 746 mmHg 54%
    11:00 +21°C° 0 mm 5 m/s 746 mmHg 50%
    12:00 +22°C° 0 mm 5 m/s 746 mmHg 48%
    13:00 +23°C° 0 mm 5 m/s 746 mmHg 47%
    14:00 +23°C° 0 mm 5 m/s 745 mmHg 46%
    15:00 +23°C° 0 mm 4 m/s 745 mmHg 49%
    16:00 +23°C° 0 mm 4 m/s 745 mmHg 52%
    17:00 +22°C° 0 mm 3 m/s 745 mmHg 55%
    18:00 +21°C° 0 mm 3 m/s 745 mmHg 63%
    19:00 +19°C° 0 mm 3 m/s 745 mmHg 70%
    20:00 +17°C° 0 mm 3 m/s 745 mmHg 77%
    21:00 +16°C° 0 mm 3 m/s 745 mmHg 78%
    22:00 +16°C° 0 mm 3 m/s 745 mmHg 80%
    23:00 +14°C° 0 mm 3 m/s 745 mmHg 82%

    24 August, Vineri

    Timp Temperatura Precipitaţii Vânt Presiune Umiditate
    00:00 +15°C° 0 mm 2 m/s 745 mmHg 83%
    01:00 +14°C° 0 mm 2 m/s 745 mmHg 85%
    02:00 +14°C° 0 mm 2 m/s 745 mmHg 87%
    03:00 +14°C° 0 mm 2 m/s 744 mmHg 88%
    04:00 +13°C° 0 mm 2 m/s 744 mmHg 89%
    05:00 +13°C° 0 mm 2 m/s 744 mmHg 90%
    06:00 +14°C° 0 mm 2 m/s 744 mmHg 83%
    07:00 +16°C° 0 mm 3 m/s 744 mmHg 76%
    08:00 +18°C° 0 mm 3 m/s 744 mmHg 68%
    09:00 +20°C° 0 mm 3 m/s 744 mmHg 62%
    10:00 +21°C° 0 mm 4 m/s 744 mmHg 57%
    11:00 +23°C° 0 mm 4 m/s 744 mmHg 51%
    12:00 +25°C° 0 mm 4 m/s 743 mmHg 49%
    13:00 +25°C° 0 mm 4 m/s 743 mmHg 47%
    14:00 +26°C° 0 mm 4 m/s 743 mmHg 45%
    15:00 +25°C° 0 mm 4 m/s 743 mmHg 48%
    16:00 +25°C° 0 mm 4 m/s 742 mmHg 50%
    17:00 +24°C° 0 mm 3 m/s 742 mmHg 53%
    18:00 +22°C° 0 mm 3 m/s 742 mmHg 58%
    19:00 +20°C° 0 mm 3 m/s 742 mmHg 63%
    20:00 +18°C° 0 mm 3 m/s 742 mmHg 67%
    21:00 +18°C° 0 mm 3 m/s 741 mmHg 69%
    22:00 +17°C° 0 mm 4 m/s 741 mmHg 70%
    23:00 +17°C° 0 mm 4 m/s 741 mmHg 71%
    Arată mai mult